Location: Unspecified
(0.0000°N, 0.0000°E)
Time: 01:43:04
(UTC+01:00)

JASON 3 - Pass Details

Date: 09 October 2020
Orbit: 1332 x 1343 km, 66.0° (Epoch: 27 October)

Event Time Altitude Azimuth Distance (km) Brightness Sun altitude
Rises 20:21:06 0° 354° (N) 4,343 ? -8.4°
Reaches altitude 10° 20:24:08 10° 1° (N) 3,371 ? -9.2°
Maximum altitude 20:31:44 42° 70° (ENE) 1,813 ? -11.1°
Drops below altitude 10° 20:39:19 10° 138° (SE) 3,373 ? -13.0°
Sets 20:42:20 0° 145° (SE) 4,346 ? -13.7°
